Jordan Harbour

*Note: All times are displayed in the local standard time of the station location.
**Rain - Equipment is designed to accurately record liquid precipitation; under conditions when precipitation is not in liquid form, the data displayed may not properly reflect rainfall values.

Date Max Temp
(°C)
Min Temp
(°C)
Avg Temp
(°C)
Rain (mm) Avg RH (%)
Sat, Feb 17, 2018 -0.7 -5.5 -2.6 0.0 70.8
Fri, Feb 16, 2018 4.6 -5.2 0.4 0.2 75.9
Thu, Feb 15, 2018 9.5 3.6 6.5 0.0 93.7
Wed, Feb 14, 2018 5.8 -5.0 3.0 7.4 73.8
Tue, Feb 13, 2018 -1.2 -14.9 -7.1 0.2 73.6
Mon, Feb 12, 2018 -1.8 -8.9 -4.5 0.6 68.5
Sun, Feb 11, 2018 1.2 -3.4 -1.5 5.0 88.9
DateTime Avg Temp (°C) Rain (mm) RH (%)
Sun, Feb 18, 2018 04:00 -1.7 0.0 83.0
Sun, Feb 18, 2018 03:00 -1.4 0.0 81.3
Sun, Feb 18, 2018 02:00 -1.1 0.0 81.0
Sun, Feb 18, 2018 01:00 -1.2 0.0 83.5
Sun, Feb 18, 2018 00:00 -1.0 0.0 81.8
Sat, Feb 17, 2018 23:00 -0.9 0.0 76.5
Sat, Feb 17, 2018 22:00 -1.2 0.0 73.0
Sat, Feb 17, 2018 21:00 -1.2 0.0 71.0
Sat, Feb 17, 2018 20:00 -1.4 0.0 69.3
Sat, Feb 17, 2018 19:00 -1.2 0.0 63.8
Sat, Feb 17, 2018 18:00 -1.0 0.0 60.5
Sat, Feb 17, 2018 17:00 -0.9 0.0 61.0
Sat, Feb 17, 2018 16:00 -0.9 0.0 63.0
Sat, Feb 17, 2018 15:00 -0.8 0.0 62.0
Sat, Feb 17, 2018 14:00 -0.9 0.0 63.3
Sat, Feb 17, 2018 13:00 -0.9 0.0 62.8
Sat, Feb 17, 2018 12:00 -0.9 0.0 64.3
Sat, Feb 17, 2018 11:00 -1.4 0.0 65.0
Sat, Feb 17, 2018 10:00 -2.3 0.0 69.8
Sat, Feb 17, 2018 09:00 -3.9 0.0 75.0
Sat, Feb 17, 2018 08:00 -5.2 0.0 78.5
Sat, Feb 17, 2018 07:00 -5.5 0.0 80.8
Sat, Feb 17, 2018 06:00 -5.2 0.0 80.0
Sat, Feb 17, 2018 05:00 -5.0 0.0 78.8
Sat, Feb 17, 2018 04:00 -4.7 0.0 77.0
Sat, Feb 17, 2018 03:00 -4.9 0.0 75.8
Sat, Feb 17, 2018 02:00 -4.9 0.0 71.3
Sat, Feb 17, 2018 01:00 -5.2 0.0 74.5
Sat, Feb 17, 2018 00:00 -5.1 0.0 73.8
Fri, Feb 16, 2018 23:00 -4.7 0.0 71.3
Fri, Feb 16, 2018 22:00 -4.3 0.0 67.5
Fri, Feb 16, 2018 21:00 -3.8 0.0 64.5
Fri, Feb 16, 2018 20:00 -3.2 0.0 59.8
Fri, Feb 16, 2018 19:00 -2.9 0.0 58.5
Fri, Feb 16, 2018 18:00 -2.4 0.0 56.0
Fri, Feb 16, 2018 17:00 -0.9 0.0 59.3
Fri, Feb 16, 2018 16:00 0.0 0.0 60.8
Fri, Feb 16, 2018 15:00 1.2 0.0 60.5
Fri, Feb 16, 2018 14:00 1.6 0.0 63.0
Fri, Feb 16, 2018 13:00 1.9 0.0 67.3
Fri, Feb 16, 2018 12:00 1.9 0.0 74.3
Fri, Feb 16, 2018 11:00 1.6 0.0 84.0
Fri, Feb 16, 2018 10:00 1.7 0.0 85.0
Fri, Feb 16, 2018 09:00 1.5 0.0 84.5
Fri, Feb 16, 2018 08:00 1.4 0.0 86.0
Fri, Feb 16, 2018 07:00 2.0 0.2 88.0
Fri, Feb 16, 2018 06:00 2.7 0.0 88.8
Fri, Feb 16, 2018 05:00 2.9 0.0 86.0


asterix Register now to access more data! asterix